Year,Month,Day,Hour,Minute,Value (Times are PST for temperature in C)
2016,08,12,00,00,19.80
2016,08,12,00,01,19.80
2016,08,12,00,02,19.80
2016,08,12,00,03,19.80
2016,08,12,00,05,19.70
2016,08,12,00,06,19.70
2016,08,12,00,08,19.70
2016,08,12,00,09,19.70
2016,08,12,00,10,19.60
2016,08,12,00,11,19.60
2016,08,12,00,12,19.60
2016,08,12,00,13,19.60
2016,08,12,00,14,19.60
2016,08,12,00,15,19.60
2016,08,12,00,16,19.60
2016,08,12,00,17,19.60
2016,08,12,00,18,19.60
2016,08,12,00,19,19.60
2016,08,12,00,20,19.60
2016,08,12,00,21,19.50
2016,08,12,00,22,19.50
2016,08,12,00,23,19.40
2016,08,12,00,24,19.40
2016,08,12,00,25,19.40
2016,08,12,00,26,19.40
2016,08,12,00,27,19.40
2016,08,12,00,28,19.30
2016,08,12,00,29,19.30
2016,08,12,00,30,19.30
2016,08,12,00,31,19.30
2016,08,12,00,32,19.30
2016,08,12,00,33,19.20
2016,08,12,00,34,19.20
2016,08,12,00,35,19.20
2016,08,12,00,36,19.20
2016,08,12,00,37,19.20
2016,08,12,00,38,19.10
2016,08,12,00,39,19.10
2016,08,12,00,40,19.10
2016,08,12,00,41,19.10
2016,08,12,00,42,19.00
2016,08,12,00,43,19.00
2016,08,12,00,44,19.00
2016,08,12,00,45,18.90
2016,08,12,00,46,18.90
2016,08,12,00,47,18.90
2016,08,12,00,48,18.90
2016,08,12,00,49,18.90
2016,08,12,00,50,18.90
2016,08,12,00,51,18.80
2016,08,12,00,52,18.80
2016,08,12,00,54,18.80
2016,08,12,00,55,18.80
2016,08,12,00,56,18.80
2016,08,12,00,57,18.70
2016,08,12,00,58,18.70
2016,08,12,00,59,18.70
2016,08,12,01,00,18.70
2016,08,12,01,02,18.60
2016,08,12,01,04,18.60
2016,08,12,01,05,18.60
2016,08,12,01,06,18.50
2016,08,12,01,07,18.50
2016,08,12,01,08,18.40
2016,08,12,01,11,18.40
2016,08,12,01,12,18.40
2016,08,12,01,13,18.30
2016,08,12,01,14,18.30
2016,08,12,01,15,18.30
2016,08,12,01,16,18.30
2016,08,12,01,17,18.30
2016,08,12,01,18,18.30
2016,08,12,01,19,18.20
2016,08,12,01,20,18.20
2016,08,12,01,21,18.20
2016,08,12,01,22,18.20
2016,08,12,01,23,18.20
2016,08,12,01,24,18.20
2016,08,12,01,25,18.20
2016,08,12,01,26,18.20
2016,08,12,01,27,18.10
2016,08,12,01,28,18.10
2016,08,12,01,29,18.10
2016,08,12,01,30,18.10
2016,08,12,01,31,18.10
2016,08,12,01,32,18.10
2016,08,12,01,33,18.10
2016,08,12,01,34,18.10
2016,08,12,01,35,18.00
2016,08,12,01,36,18.00
2016,08,12,01,37,18.00
2016,08,12,01,38,17.90
2016,08,12,01,39,17.90
2016,08,12,01,40,17.90
2016,08,12,01,41,17.90
2016,08,12,01,42,17.90
2016,08,12,01,43,17.80
2016,08,12,01,44,17.80
2016,08,12,01,45,17.80
2016,08,12,01,46,17.80
2016,08,12,01,47,17.80
2016,08,12,01,48,17.80
2016,08,12,01,49,17.80
2016,08,12,01,50,17.80
2016,08,12,01,51,17.80
2016,08,12,01,52,17.70
2016,08,12,01,53,17.70
2016,08,12,01,54,17.70
2016,08,12,01,55,17.70
2016,08,12,01,56,17.70
2016,08,12,01,57,17.70
2016,08,12,01,58,17.70
2016,08,12,01,59,17.70
2016,08,12,02,00,17.60
2016,08,12,02,01,17.60
2016,08,12,02,02,17.60
2016,08,12,02,03,17.60
2016,08,12,02,04,17.60
2016,08,12,02,05,17.60
2016,08,12,02,06,17.60
2016,08,12,02,07,17.50
2016,08,12,02,08,17.50
2016,08,12,02,09,17.50
2016,08,12,02,10,17.40
2016,08,12,02,11,17.40
2016,08,12,02,12,17.40
2016,08,12,02,13,17.40
2016,08,12,02,14,17.40
2016,08,12,02,15,17.40
2016,08,12,02,16,17.30
2016,08,12,02,17,17.30
2016,08,12,02,18,17.30
2016,08,12,02,19,17.30
2016,08,12,02,20,17.30
2016,08,12,02,21,17.30
2016,08,12,02,22,17.30
2016,08,12,02,23,17.30
2016,08,12,02,24,17.30
2016,08,12,02,25,17.30
2016,08,12,02,26,17.30
2016,08,12,02,27,17.30
2016,08,12,02,28,17.20
2016,08,12,02,29,17.20
2016,08,12,02,30,17.20
2016,08,12,02,31,17.20
2016,08,12,02,32,17.20
2016,08,12,02,33,17.20
2016,08,12,02,34,17.10
2016,08,12,02,35,17.10
2016,08,12,02,36,17.10
2016,08,12,02,37,17.10
2016,08,12,02,38,17.10
2016,08,12,02,39,17.10
2016,08,12,02,40,17.00
2016,08,12,02,41,17.00
2016,08,12,02,43,16.90
2016,08,12,02,44,16.90
2016,08,12,02,45,16.90
2016,08,12,02,46,16.90
2016,08,12,02,47,16.90
2016,08,12,02,48,16.90
2016,08,12,02,49,16.90
2016,08,12,02,50,16.90
2016,08,12,02,51,16.90
2016,08,12,02,52,16.80
2016,08,12,02,53,16.80
2016,08,12,02,54,16.80
2016,08,12,02,55,16.80
2016,08,12,02,57,16.80
2016,08,12,02,58,16.80
2016,08,12,02,59,16.80
2016,08,12,03,00,16.80
2016,08,12,03,01,16.80
2016,08,12,03,02,16.70
2016,08,12,03,03,16.70
2016,08,12,03,04,16.70
2016,08,12,03,05,16.70
2016,08,12,03,07,16.70
2016,08,12,03,08,16.70
2016,08,12,03,09,16.70
2016,08,12,03,10,16.70
2016,08,12,03,11,16.70
2016,08,12,03,12,16.60
2016,08,12,03,13,16.60
2016,08,12,03,14,16.60
2016,08,12,03,15,16.60
2016,08,12,03,16,16.60
2016,08,12,03,17,16.60
2016,08,12,03,18,16.60
2016,08,12,03,19,16.60
2016,08,12,03,20,16.60
2016,08,12,03,21,16.60
2016,08,12,03,22,16.60
2016,08,12,03,23,16.50
2016,08,12,03,24,16.50
2016,08,12,03,25,16.50
2016,08,12,03,26,16.50
2016,08,12,03,27,16.40
2016,08,12,03,29,16.40
2016,08,12,03,30,16.40
2016,08,12,03,31,16.40
2016,08,12,03,32,16.40
2016,08,12,03,33,16.40
2016,08,12,03,34,16.40
2016,08,12,03,35,16.40
2016,08,12,03,36,16.40
2016,08,12,03,37,16.40
2016,08,12,03,38,16.40
2016,08,12,03,39,16.40
2016,08,12,03,40,16.40
2016,08,12,03,41,16.40
2016,08,12,03,42,16.40
2016,08,12,03,44,16.30
2016,08,12,03,45,16.30
2016,08,12,03,46,16.30
2016,08,12,03,47,16.30
2016,08,12,03,48,16.30
2016,08,12,03,49,16.30
2016,08,12,03,50,16.30
2016,08,12,03,51,16.20
2016,08,12,03,52,16.20
2016,08,12,03,53,16.20
2016,08,12,03,54,16.20
2016,08,12,03,55,16.20
2016,08,12,03,56,16.20
2016,08,12,03,57,16.20
2016,08,12,03,58,16.20
2016,08,12,03,59,16.10
2016,08,12,04,00,16.10
2016,08,12,04,01,16.10
2016,08,12,04,02,16.10
2016,08,12,04,03,16.10
2016,08,12,04,04,16.10
2016,08,12,04,05,16.10
2016,08,12,04,06,16.10
2016,08,12,04,07,16.10
2016,08,12,04,08,16.10
2016,08,12,04,09,16.10
2016,08,12,04,10,16.00
2016,08,12,04,11,16.00
2016,08,12,04,12,15.90
2016,08,12,04,13,15.90
2016,08,12,04,14,15.90
2016,08,12,04,15,15.90
2016,08,12,04,16,15.90
2016,08,12,04,17,15.90
2016,08,12,04,18,15.80
2016,08,12,04,19,15.80
2016,08,12,04,20,15.80
2016,08,12,04,21,15.80
2016,08,12,04,22,15.80
2016,08,12,04,23,15.80
2016,08,12,04,24,15.80
2016,08,12,04,25,15.80
2016,08,12,04,26,15.80
2016,08,12,04,27,15.80
2016,08,12,04,28,15.70
2016,08,12,04,30,15.70
2016,08,12,04,31,15.70
2016,08,12,04,33,15.70
2016,08,12,04,34,15.70
2016,08,12,04,35,15.70
2016,08,12,04,36,15.70
2016,08,12,04,37,15.70
2016,08,12,04,38,15.70
2016,08,12,04,39,15.70
2016,08,12,04,40,15.70
2016,08,12,04,42,15.70
2016,08,12,04,43,15.60
2016,08,12,04,44,15.60
2016,08,12,04,45,15.60
2016,08,12,04,46,15.60
2016,08,12,04,47,15.60
2016,08,12,04,48,15.60
2016,08,12,04,49,15.60
2016,08,12,04,50,15.60
2016,08,12,04,51,15.50
2016,08,12,04,52,15.50
2016,08,12,04,53,15.50
2016,08,12,04,54,15.50
2016,08,12,04,55,15.50
2016,08,12,04,56,15.50
2016,08,12,04,57,15.50
2016,08,12,04,58,15.50
2016,08,12,04,59,15.40
2016,08,12,05,00,15.40
2016,08,12,05,01,15.40
2016,08,12,05,02,15.40
2016,08,12,05,03,15.40
2016,08,12,05,04,15.40
2016,08,12,05,05,15.40
2016,08,12,05,06,15.40
2016,08,12,05,07,15.40
2016,08,12,05,08,15.40
2016,08,12,05,09,15.40
2016,08,12,05,10,15.40
2016,08,12,05,11,15.30
2016,08,12,05,12,15.30
2016,08,12,05,13,15.30
2016,08,12,05,14,15.30
2016,08,12,05,15,15.30
2016,08,12,05,16,15.30
2016,08,12,05,17,15.30
2016,08,12,05,18,15.30
2016,08,12,05,19,15.30
2016,08,12,05,20,15.30
2016,08,12,05,21,15.30
2016,08,12,05,22,15.30
2016,08,12,05,23,15.30
2016,08,12,05,24,15.30
2016,08,12,05,25,15.30
2016,08,12,05,26,15.30
2016,08,12,05,27,15.30
2016,08,12,05,28,15.30
2016,08,12,05,29,15.30
2016,08,12,05,30,15.20
2016,08,12,05,31,15.20
2016,08,12,05,32,15.20
2016,08,12,05,33,15.20
2016,08,12,05,34,15.20
2016,08,12,05,35,15.20
2016,08,12,05,36,15.20
2016,08,12,05,37,15.20
2016,08,12,05,38,15.20
2016,08,12,05,39,15.20
2016,08,12,05,40,15.10
2016,08,12,05,41,15.10
2016,08,12,05,42,15.10
2016,08,12,05,43,15.10
2016,08,12,05,44,15.10
2016,08,12,05,45,15.10
2016,08,12,05,46,15.10
2016,08,12,05,47,15.10
2016,08,12,05,48,15.00
2016,08,12,05,49,15.00
2016,08,12,05,52,15.00
2016,08,12,05,53,15.00
2016,08,12,05,54,15.00
2016,08,12,05,55,15.00
2016,08,12,05,56,15.00
2016,08,12,05,57,15.00
2016,08,12,05,58,14.90
2016,08,12,05,59,14.90
2016,08,12,06,00,15.00
2016,08,12,06,01,14.90
2016,08,12,06,02,14.90
2016,08,12,06,03,14.90
2016,08,12,06,04,14.90
2016,08,12,06,05,14.90
2016,08,12,06,06,14.90
2016,08,12,06,07,14.90
2016,08,12,06,08,14.90
2016,08,12,06,09,14.90
2016,08,12,06,10,14.90
2016,08,12,06,11,14.90
2016,08,12,06,12,14.90
2016,08,12,06,13,14.90
2016,08,12,06,14,14.90
2016,08,12,06,15,14.90
2016,08,12,06,16,14.90
2016,08,12,06,17,14.90
2016,08,12,06,18,14.90
2016,08,12,06,19,14.90
2016,08,12,06,20,14.90
2016,08,12,06,21,14.90
2016,08,12,06,22,14.90
2016,08,12,06,23,14.90
2016,08,12,06,24,14.90
2016,08,12,06,25,14.90
2016,08,12,06,26,14.90
2016,08,12,06,27,14.90
2016,08,12,06,28,14.90
2016,08,12,06,29,14.90
2016,08,12,06,30,14.90
2016,08,12,06,31,14.90
2016,08,12,06,32,14.90
2016,08,12,06,33,14.90
2016,08,12,06,34,14.90
2016,08,12,06,35,14.90
2016,08,12,06,36,14.90
2016,08,12,06,37,14.90
2016,08,12,06,38,14.90
2016,08,12,06,40,14.90
2016,08,12,06,41,14.90
2016,08,12,06,42,14.90
2016,08,12,06,43,14.90
2016,08,12,06,44,14.90
2016,08,12,06,45,14.90
2016,08,12,06,46,14.90
2016,08,12,06,47,14.90
2016,08,12,06,48,15.00
2016,08,12,06,49,15.00
2016,08,12,06,50,15.00
2016,08,12,06,52,15.10
2016,08,12,06,53,15.10
2016,08,12,08,56,20.30
2016,08,12,08,59,20.40
2016,08,12,09,00,20.50
2016,08,12,09,01,20.60
2016,08,12,09,02,20.60
2016,08,12,09,03,20.70
2016,08,12,09,04,20.70
2016,08,12,09,05,20.70
2016,08,12,09,06,20.80
2016,08,12,09,07,20.80
2016,08,12,09,08,20.80
2016,08,12,09,09,20.80
2016,08,12,09,10,20.90
2016,08,12,09,11,21.00
2016,08,12,09,12,21.10
2016,08,12,09,13,21.10
2016,08,12,09,14,21.20
2016,08,12,09,15,21.20
2016,08,12,09,16,21.30
2016,08,12,09,17,21.30
2016,08,12,09,18,21.30
2016,08,12,09,19,21.40
2016,08,12,09,20,21.40
2016,08,12,09,21,21.40
2016,08,12,09,22,21.50
2016,08,12,09,23,21.60
2016,08,12,09,24,21.60
2016,08,12,09,25,21.60
2016,08,12,09,26,21.70
2016,08,12,09,27,21.70
2016,08,12,09,28,21.80
2016,08,12,09,29,21.80
2016,08,12,09,30,21.90
2016,08,12,09,31,22.10
2016,08,12,09,32,22.10
2016,08,12,09,33,22.20
2016,08,12,09,34,22.30
2016,08,12,09,35,22.30
2016,08,12,09,36,22.40
2016,08,12,09,37,22.50
2016,08,12,09,38,22.60
2016,08,12,09,39,22.70
2016,08,12,09,40,22.70
2016,08,12,09,41,22.80
2016,08,12,09,42,22.90
2016,08,12,09,43,23.00
2016,08,12,09,44,23.10
2016,08,12,09,45,23.20
2016,08,12,09,46,23.20
2016,08,12,09,47,23.30
2016,08,12,09,49,23.40
2016,08,12,09,50,23.50
2016,08,12,09,51,23.60
2016,08,12,09,52,23.70
2016,08,12,09,53,23.80
2016,08,12,09,54,23.80
2016,08,12,09,55,23.90
2016,08,12,09,56,23.90
2016,08,12,09,57,24.00
2016,08,12,09,58,24.00
2016,08,12,09,59,24.10
2016,08,12,10,01,24.00
2016,08,12,10,02,23.90
2016,08,12,10,03,23.90
2016,08,12,10,04,23.80
2016,08,12,10,05,23.80
2016,08,12,10,06,23.80
2016,08,12,10,07,23.80
2016,08,12,10,08,23.80
2016,08,12,10,09,23.80
2016,08,12,10,10,23.90
2016,08,12,10,11,23.90
2016,08,12,10,12,23.90
2016,08,12,10,13,24.10
2016,08,12,10,14,24.10
2016,08,12,10,15,24.10
2016,08,12,10,16,24.20
2016,08,12,10,17,24.20
2016,08,12,10,18,24.30
2016,08,12,10,19,24.30
2016,08,12,10,20,24.40
2016,08,12,10,21,24.40
2016,08,12,10,22,24.50
2016,08,12,10,23,24.60
2016,08,12,10,24,24.70
2016,08,12,10,26,24.70
2016,08,12,10,27,24.80
2016,08,12,10,28,24.80
2016,08,12,10,29,24.80
2016,08,12,10,30,24.90
2016,08,12,10,31,24.90
2016,08,12,10,32,24.90
2016,08,12,10,33,24.90
2016,08,12,10,34,24.90
2016,08,12,10,35,24.90
2016,08,12,10,36,24.90
2016,08,12,10,37,24.80
2016,08,12,10,38,24.80
2016,08,12,10,39,24.80
2016,08,12,10,40,24.80
2016,08,12,10,41,24.80
2016,08,12,10,42,24.80
2016,08,12,10,43,24.80
2016,08,12,10,44,24.90
2016,08,12,10,45,24.90
2016,08,12,10,46,25.00
2016,08,12,10,47,25.10
2016,08,12,10,48,25.10
2016,08,12,10,49,25.20
2016,08,12,10,50,25.20
2016,08,12,10,51,25.30
2016,08,12,10,52,25.40
2016,08,12,10,53,25.40
2016,08,12,10,54,25.40
2016,08,12,10,55,25.40
2016,08,12,10,56,25.50
2016,08,12,10,57,25.50
2016,08,12,10,58,25.50
2016,08,12,10,59,25.60
2016,08,12,11,00,25.60
2016,08,12,11,01,25.70
2016,08,12,11,02,25.70
2016,08,12,11,03,25.80
2016,08,12,11,04,25.80
2016,08,12,11,05,25.90
2016,08,12,11,06,26.00
2016,08,12,11,07,26.00
2016,08,12,11,08,26.10
2016,08,12,11,09,26.10
2016,08,12,11,10,26.10
2016,08,12,11,11,26.20
2016,08,12,11,12,26.20
2016,08,12,11,13,26.20
2016,08,12,11,14,26.30
2016,08,12,11,15,26.30
2016,08,12,11,16,26.30
2016,08,12,11,17,26.40
2016,08,12,11,18,26.50
2016,08,12,11,19,26.60
2016,08,12,11,20,26.60
2016,08,12,11,21,26.70
2016,08,12,11,22,26.70
2016,08,12,11,23,26.70
2016,08,12,11,24,26.80
2016,08,12,11,25,26.80
2016,08,12,11,26,26.90
2016,08,12,11,28,26.90
2016,08,12,11,29,26.90
2016,08,12,11,30,27.00
2016,08,12,11,31,27.00
2016,08,12,11,32,27.10
2016,08,12,11,33,27.10
2016,08,12,11,34,27.20
2016,08,12,11,35,27.20
2016,08,12,11,36,27.30
2016,08,12,11,37,27.40
2016,08,12,11,38,27.40
2016,08,12,11,39,27.40
2016,08,12,11,40,27.50
2016,08,12,11,41,27.60
2016,08,12,11,42,27.60
2016,08,12,11,43,27.60
2016,08,12,11,44,27.60
2016,08,12,11,45,27.60
2016,08,12,11,46,27.60
2016,08,12,11,47,27.60
2016,08,12,11,48,27.60
2016,08,12,11,49,27.60
2016,08,12,11,50,27.70
2016,08,12,11,51,27.70
2016,08,12,11,52,27.70
2016,08,12,11,53,27.70
2016,08,12,11,54,27.70
2016,08,12,11,55,27.70
2016,08,12,11,56,27.60
2016,08,12,11,57,27.60
2016,08,12,11,58,27.60
2016,08,12,11,59,27.60
2016,08,12,12,00,27.60
2016,08,12,12,01,27.60
2016,08,12,12,02,27.60
2016,08,12,12,03,27.60
2016,08,12,12,04,27.60
2016,08,12,12,05,27.60
2016,08,12,12,06,27.70
2016,08,12,12,07,27.80
2016,08,12,12,08,27.80
2016,08,12,12,09,27.90
2016,08,12,12,10,27.90
2016,08,12,12,11,28.00
2016,08,12,12,12,28.00
2016,08,12,12,13,28.00
2016,08,12,12,14,28.10
2016,08,12,12,15,28.10
2016,08,12,12,16,28.20
2016,08,12,12,17,28.30
2016,08,12,12,18,28.40
2016,08,12,12,19,28.40
2016,08,12,12,20,28.40
2016,08,12,12,21,28.40
2016,08,12,12,22,28.40
2016,08,12,12,23,28.50
2016,08,12,12,24,28.50
2016,08,12,12,25,28.60
2016,08,12,12,26,28.60
2016,08,12,12,27,28.60
2016,08,12,12,28,28.60
2016,08,12,12,29,28.70
2016,08,12,12,30,28.70
2016,08,12,12,31,28.70
2016,08,12,12,32,28.80
2016,08,12,12,33,28.80
2016,08,12,12,34,28.80
2016,08,12,12,35,28.90
2016,08,12,12,36,29.00
2016,08,12,12,37,29.00
2016,08,12,12,38,29.10
2016,08,12,12,39,29.10
2016,08,12,12,40,29.20
2016,08,12,12,41,29.30
2016,08,12,12,42,29.30
2016,08,12,12,43,29.40
2016,08,12,12,44,29.40
2016,08,12,12,45,29.40
2016,08,12,12,46,29.50
2016,08,12,12,47,29.60
2016,08,12,12,48,29.60
2016,08,12,12,49,29.70
2016,08,12,12,50,29.70
2016,08,12,12,51,29.70
2016,08,12,12,52,29.80
2016,08,12,12,53,29.80
2016,08,12,12,54,29.80
2016,08,12,12,55,29.90
2016,08,12,12,56,29.90
2016,08,12,12,57,29.90
2016,08,12,12,59,30.00
2016,08,12,13,00,30.00
2016,08,12,13,01,30.00
2016,08,12,13,02,30.10
2016,08,12,13,03,30.10
2016,08,12,13,04,30.10
2016,08,12,13,05,30.20
2016,08,12,13,06,30.20
2016,08,12,13,07,30.10
2016,08,12,13,08,30.10
2016,08,12,13,09,29.90
2016,08,12,13,10,29.80
2016,08,12,13,11,29.80
2016,08,12,13,12,29.70
2016,08,12,13,13,29.60
2016,08,12,13,14,29.60
2016,08,12,13,15,29.60
2016,08,12,13,16,29.70
2016,08,12,13,17,29.70
2016,08,12,13,18,29.80
2016,08,12,13,19,29.90
2016,08,12,13,20,29.90
2016,08,12,13,21,30.00
2016,08,12,13,22,30.10
2016,08,12,13,23,30.10
2016,08,12,13,24,30.20
2016,08,12,13,25,30.30
2016,08,12,13,26,30.30
2016,08,12,13,27,30.40
2016,08,12,13,28,30.50
2016,08,12,13,29,30.60
2016,08,12,13,30,30.60
2016,08,12,13,31,30.70
2016,08,12,13,32,30.70
2016,08,12,13,33,30.70
2016,08,12,13,34,30.70
2016,08,12,13,35,30.70
2016,08,12,13,36,30.70
2016,08,12,13,37,30.70
2016,08,12,13,38,30.70
2016,08,12,13,39,30.60
2016,08,12,13,40,30.60
2016,08,12,13,41,30.60
2016,08,12,13,42,30.50
2016,08,12,13,43,30.40
2016,08,12,13,44,30.40
2016,08,12,13,45,30.40
2016,08,12,13,46,30.40
2016,08,12,13,47,30.40
2016,08,12,13,48,30.40
2016,08,12,13,49,30.40
2016,08,12,13,50,30.40
2016,08,12,13,51,30.40
2016,08,12,13,52,30.40
2016,08,12,13,53,30.60
2016,08,12,13,54,30.60
2016,08,12,13,55,30.70
2016,08,12,13,56,30.80
2016,08,12,13,57,30.90
2016,08,12,13,58,31.00
2016,08,12,13,59,31.10
2016,08,12,14,00,31.10
2016,08,12,14,01,31.10
2016,08,12,14,02,31.10
2016,08,12,14,03,31.10
2016,08,12,14,04,31.10
2016,08,12,14,05,31.10
2016,08,12,14,06,31.20
2016,08,12,14,07,31.20
2016,08,12,14,08,31.20
2016,08,12,14,09,31.30
2016,08,12,14,10,31.30
2016,08,12,14,11,31.30
2016,08,12,14,12,31.30
2016,08,12,14,13,31.30
2016,08,12,14,14,31.30
2016,08,12,14,15,31.30
2016,08,12,14,16,31.30
2016,08,12,14,17,31.30
2016,08,12,14,18,31.30
2016,08,12,14,19,31.30
2016,08,12,14,20,31.20
2016,08,12,14,21,31.20
2016,08,12,14,22,31.20
2016,08,12,14,23,31.20
2016,08,12,14,24,31.20
2016,08,12,14,25,31.20
2016,08,12,14,26,31.30
2016,08,12,14,27,31.30
2016,08,12,14,28,31.30
2016,08,12,14,29,31.30
2016,08,12,14,30,31.30
2016,08,12,14,31,31.30
2016,08,12,14,32,31.30
2016,08,12,14,33,31.30
2016,08,12,14,34,31.30
2016,08,12,14,35,31.30
2016,08,12,14,36,31.30
2016,08,12,14,37,31.30
2016,08,12,14,38,31.30
2016,08,12,14,39,31.40
2016,08,12,14,40,31.40
2016,08,12,14,41,31.40
2016,08,12,14,42,31.40
2016,08,12,14,43,31.40
2016,08,12,14,44,31.50
2016,08,12,14,45,31.60
2016,08,12,14,46,31.60
2016,08,12,14,47,31.60
2016,08,12,14,48,31.60
2016,08,12,14,49,31.60
2016,08,12,14,50,31.70
2016,08,12,14,51,31.70
2016,08,12,14,52,31.80
2016,08,12,14,53,31.80
2016,08,12,14,54,31.80
2016,08,12,14,55,31.70
2016,08,12,14,56,31.70
2016,08,12,14,57,31.70
2016,08,12,14,58,31.80
2016,08,12,14,59,31.80
2016,08,12,15,00,31.70
2016,08,12,15,01,31.70
2016,08,12,15,02,31.70
2016,08,12,15,03,31.70
2016,08,12,15,04,31.70
2016,08,12,15,05,31.70
2016,08,12,15,06,31.70
2016,08,12,15,07,31.60
2016,08,12,15,08,31.60
2016,08,12,15,09,31.60
2016,08,12,15,10,31.60
2016,08,12,15,11,31.60
2016,08,12,15,12,31.60
2016,08,12,15,13,31.60
2016,08,12,15,14,31.60
2016,08,12,15,15,31.60
2016,08,12,15,16,31.60
2016,08,12,15,17,31.70
2016,08,12,15,20,31.80
2016,08,12,15,22,32.00
2016,08,12,15,23,32.10
2016,08,12,15,24,32.10
2016,08,12,15,25,32.10
2016,08,12,15,26,32.10
2016,08,12,15,27,32.10
2016,08,12,15,28,32.20
2016,08,12,15,29,32.20
2016,08,12,15,30,32.20
2016,08,12,15,32,32.30
2016,08,12,15,33,32.30
2016,08,12,15,34,32.30
2016,08,12,15,35,32.30
2016,08,12,15,36,32.30
2016,08,12,15,37,32.30
2016,08,12,15,38,32.30
2016,08,12,15,39,32.30
2016,08,12,15,40,32.40
2016,08,12,15,41,32.40
2016,08,12,15,42,32.40
2016,08,12,15,43,32.40
2016,08,12,15,44,32.40
2016,08,12,15,45,32.50
2016,08,12,15,46,32.60
2016,08,12,15,47,32.60
2016,08,12,15,48,32.70
2016,08,12,15,49,32.70
2016,08,12,15,50,32.80
2016,08,12,15,51,32.80
2016,08,12,15,52,32.80
2016,08,12,15,53,32.80
2016,08,12,15,54,32.80
2016,08,12,15,55,32.80
2016,08,12,15,56,32.80
2016,08,12,15,57,32.80
2016,08,12,15,58,32.80
2016,08,12,15,59,32.80
2016,08,12,16,00,32.80
2016,08,12,16,01,32.80
2016,08,12,16,02,32.80
2016,08,12,16,03,32.80
2016,08,12,16,04,32.80
2016,08,12,16,05,32.90
2016,08,12,16,06,32.90
2016,08,12,16,07,32.90
2016,08,12,16,08,32.90
2016,08,12,16,09,32.90
2016,08,12,16,10,32.90
2016,08,12,16,11,32.90
2016,08,12,16,12,32.90
2016,08,12,16,13,32.90
2016,08,12,16,14,33.00
2016,08,12,16,15,33.00
2016,08,12,16,16,33.10
2016,08,12,16,17,33.10
2016,08,12,16,19,33.10
2016,08,12,16,20,33.10
2016,08,12,16,21,33.10
2016,08,12,16,22,33.10
2016,08,12,16,23,33.10
2016,08,12,16,24,33.10
2016,08,12,16,25,33.10
2016,08,12,16,26,33.10
2016,08,12,16,27,33.10
2016,08,12,16,28,33.10
2016,08,12,16,29,33.10
2016,08,12,16,31,33.00
2016,08,12,16,32,33.00
2016,08,12,16,33,32.90
2016,08,12,16,34,32.90
2016,08,12,16,35,32.90
2016,08,12,16,36,32.90
2016,08,12,16,37,32.90
2016,08,12,16,38,33.00
2016,08,12,16,39,33.00
2016,08,12,16,40,33.00
2016,08,12,16,41,33.00
2016,08,12,16,42,33.00
2016,08,12,16,43,33.00
2016,08,12,16,44,33.00
2016,08,12,16,45,33.00
2016,08,12,16,46,33.00
2016,08,12,16,47,32.90
2016,08,12,16,48,32.90
2016,08,12,16,49,32.90
2016,08,12,16,50,32.80
2016,08,12,16,51,32.80
2016,08,12,16,52,32.80
2016,08,12,16,53,32.80
2016,08,12,16,54,32.80
2016,08,12,16,55,32.80
2016,08,12,16,56,32.80
2016,08,12,16,57,32.80
2016,08,12,16,58,32.80
2016,08,12,16,59,32.80
2016,08,12,17,00,32.80
2016,08,12,17,01,32.80
2016,08,12,17,02,32.80
2016,08,12,17,03,32.90
2016,08,12,17,04,32.90
2016,08,12,17,05,32.90
2016,08,12,17,06,32.90
2016,08,12,17,07,32.90
2016,08,12,17,08,32.90
2016,08,12,17,09,32.90
2016,08,12,17,11,32.90
2016,08,12,17,12,32.90
2016,08,12,17,14,32.80
2016,08,12,17,15,32.80
2016,08,12,17,16,32.80
2016,08,12,17,17,32.80
2016,08,12,17,18,32.80
2016,08,12,17,19,32.70
2016,08,12,17,20,32.70
2016,08,12,17,21,32.70
2016,08,12,17,22,32.70
2016,08,12,17,23,32.70
2016,08,12,17,24,32.70
2016,08,12,17,25,32.60
2016,08,12,17,26,32.60
2016,08,12,17,27,32.60
2016,08,12,17,28,32.60
2016,08,12,17,29,32.50
2016,08,12,17,30,32.40
2016,08,12,17,31,32.40
2016,08,12,17,32,32.40
2016,08,12,17,33,32.40
2016,08,12,17,34,32.40
2016,08,12,17,35,32.40
2016,08,12,17,36,32.40
2016,08,12,17,37,32.40
2016,08,12,17,38,32.40
2016,08,12,17,39,32.40
2016,08,12,17,40,32.40
2016,08,12,17,41,32.40
2016,08,12,17,42,32.40
2016,08,12,17,43,32.40
2016,08,12,17,44,32.30
2016,08,12,17,45,32.30
2016,08,12,17,46,32.30
2016,08,12,17,47,32.30
2016,08,12,17,48,32.30
2016,08,12,17,49,32.30
2016,08,12,17,50,32.30
2016,08,12,17,51,32.30
2016,08,12,17,52,32.30
2016,08,12,17,53,32.30
2016,08,12,17,54,32.30
2016,08,12,17,55,32.30
2016,08,12,17,56,32.30
2016,08,12,17,57,32.30
2016,08,12,17,58,32.30
2016,08,12,17,59,32.30
2016,08,12,18,00,32.30
2016,08,12,18,01,32.20
2016,08,12,18,02,32.20
2016,08,12,18,03,32.20
2016,08,12,18,04,32.20
2016,08,12,18,05,32.20
2016,08,12,18,06,32.10
2016,08,12,18,07,32.10
2016,08,12,18,08,32.10
2016,08,12,18,09,32.10
2016,08,12,18,10,32.10
2016,08,12,18,11,32.10
2016,08,12,18,12,32.10
2016,08,12,18,13,32.00
2016,08,12,18,14,32.00
2016,08,12,18,15,32.00
2016,08,12,18,16,32.00
2016,08,12,18,17,32.00
2016,08,12,18,18,31.90
2016,08,12,18,19,31.90
2016,08,12,18,20,31.90
2016,08,12,18,21,31.90
2016,08,12,18,22,31.80
2016,08,12,18,23,31.80
2016,08,12,18,24,31.80
2016,08,12,18,25,31.80
2016,08,12,18,26,31.70
2016,08,12,18,27,31.70
2016,08,12,18,28,31.70
2016,08,12,18,29,31.70
2016,08,12,18,30,31.70
2016,08,12,18,31,31.70
2016,08,12,18,33,31.70
2016,08,12,18,34,31.70
2016,08,12,18,35,31.70
2016,08,12,18,36,31.70
2016,08,12,18,37,31.60
2016,08,12,18,38,31.60
2016,08,12,18,39,31.60
2016,08,12,18,40,31.60
2016,08,12,18,41,31.60
2016,08,12,18,42,31.60
2016,08,12,18,43,31.60
2016,08,12,18,44,31.60
2016,08,12,18,45,31.60
2016,08,12,18,46,31.50
2016,08,12,18,47,31.50
2016,08,12,18,48,31.50
2016,08,12,18,49,31.50
2016,08,12,18,50,31.50
2016,08,12,18,51,31.40
2016,08,12,18,52,31.40
2016,08,12,18,53,31.40
2016,08,12,18,54,31.40
2016,08,12,18,55,31.40
2016,08,12,18,56,31.30
2016,08,12,18,57,31.30
2016,08,12,18,58,31.30
2016,08,12,18,59,31.30
2016,08,12,19,00,31.30
2016,08,12,19,01,31.30
2016,08,12,19,02,31.20
2016,08,12,19,03,31.20
2016,08,12,19,04,31.10
2016,08,12,19,05,31.10
2016,08,12,19,06,31.00
2016,08,12,19,07,30.90
2016,08,12,19,08,30.90
2016,08,12,19,10,30.80
2016,08,12,19,11,30.80
2016,08,12,19,12,30.70
2016,08,12,19,13,30.70
2016,08,12,19,14,30.60
2016,08,12,19,15,30.60
2016,08,12,19,16,30.50
2016,08,12,19,17,30.40
2016,08,12,19,18,30.30
2016,08,12,19,19,30.30
2016,08,12,19,20,30.20
2016,08,12,19,21,30.20
2016,08,12,19,22,30.10
2016,08,12,19,23,30.10
2016,08,12,19,24,30.00
2016,08,12,19,25,29.90
2016,08,12,19,26,29.90
2016,08,12,19,27,29.90
2016,08,12,19,28,29.80
2016,08,12,19,29,29.80
2016,08,12,19,30,29.70
2016,08,12,19,31,29.70
2016,08,12,19,32,29.60
2016,08,12,19,33,29.60
2016,08,12,19,34,29.50
2016,08,12,19,35,29.40
2016,08,12,19,36,29.30
2016,08,12,19,37,29.30
2016,08,12,19,38,29.20
2016,08,12,19,39,29.20
2016,08,12,19,40,29.10
2016,08,12,19,41,29.00
2016,08,12,19,42,28.90
2016,08,12,19,43,28.80
2016,08,12,19,44,28.80
2016,08,12,19,45,28.70
2016,08,12,19,46,28.70
2016,08,12,19,47,28.70
2016,08,12,19,48,28.60
2016,08,12,19,49,28.60
2016,08,12,19,50,28.60
2016,08,12,19,51,28.60
2016,08,12,19,52,28.60
2016,08,12,19,53,28.50
2016,08,12,19,54,28.50
2016,08,12,19,55,28.50
2016,08,12,19,56,28.50
2016,08,12,19,57,28.50